View Sortable Currents For Network
ASOSAWOSCoCoRaHSCOOPDCPISUSM
SchoolNetOtherSCANMy FavoritesBy StateRWIS
RWIS SurfaceRWIS TrafficRWIS SoilBy NWS WFOUSCRN

Sorted by: Valid. The number of observations missing for this month is shown in parenthesis.

Add: SiteID: Station Name: County: Valid: Hydro
24hour Rain Month Rain Snowfall Ratio Snow Depth
IA-PK-75 Clive 0.1 WSW Polk09:15 AM03.1
IA-DM-8 Burlington 0.8 SSE Des Moines08:27 AM05.77
IA-ST-30 Eldridge 0.7 SSW Scott08:00 AM06.940
IA-DV-13 Drakesville 7.4 NNW Davis08:00 AM04.280
IA-SR-29 Ames 2.5 W Story08:00 AM04.610
IA-SX-6 Orange City 2.5 S Sioux08:00 AM00.890
IA-AP-10 Plano 1.9 NW Appanoose08:00 AM06.01
IA-JN-10 Center Junction 2.6 W Jones08:00 AM05.590
IA-WY-4 Promise City 0.6 W Wayne08:00 AM05.72
IA-PG-3 College Springs 0.3 NNW Page08:00 AM04.840
IA-ST-1 Le Claire 1.8 NNE Scott08:00 AM06.520
IA-JH-20 Coralville 1.4 S Johnson08:00 AM06.510
IA-WP-3 Ottumwa 1.5 SW Wapello08:00 AM04.27
IA-FM-1 Sidney 5.1 NNE Fremont08:00 AM05.060
IA-PK-99 Ankeny 2.0 SW Polk08:00 AM0000
IA-PC-8 Fonda 4.5 NNW Pocahontas08:00 AM02.390
IA-AP-11 Melrose 6.8 SSE Appanoose08:00 AM06.59
IA-WR-5 Hartford 1.0 ENE Warren08:00 AM03.6400
IA-BH-17 Gilbertville 1.0 NW Black Hawk08:00 AM06.60
IA-CT-7 Marquette 0.2 NNE Clayton08:00 AM05.370
IA-PT-13 Council Bluffs 2.1 SSE Pottawattamie08:00 AM03.030
IA-JH-23 Tiffin 1.9 SW Johnson08:00 AM06.6
IA-WY-6 Promise City 1.6 W Wayne08:00 AM06.27
IA-JH-27 North Liberty 0.7 SSW Johnson07:50 AM06.230
IA-CG-4 Mason City 1.3 W Cerro Gordo07:45 AM04.90
IA-JH-14 Swisher 0.4 NNE Johnson07:45 AM05.020
IA-AP-9 Numa 1.7 W Appanoose07:37 AM05.88
IA-WH-1 Decorah 7.9 ENE Winneshiek07:30 AM060
IA-ST-31 Davenport 3.8 NNW Scott07:30 AM05.91
IA-WP-11 Blakesburg 4.4 NE Wapello07:24 AM05.29
IA-CN-8 Delmar 2.3 NW Clinton07:00 AM06.30
IA-CN-2 Calamus 2.0 NE Clinton07:00 AM07.110
IA-SR-33 Story City 1.5 SSE Story07:00 AM04.52
IA-CL-2 Osceola 2.5 WSW Clarke07:00 AM070
IA-BC-8 Independence 0.9 WNW Buchanan07:00 AM07.71
IA-BC-9 Winthrop 5.6 NNE Buchanan07:00 AMT5.98
IA-CG-7 Swaledale 0.0 WNW Cerro Gordo07:00 AM04.830
IA-IA-18 Marengo 3.6 N Iowa07:00 AM03.26
IA-KS-5 Burt 0.5 NW Kossuth07:00 AM03.190
IA-TY-2 New Market 4.7 N Taylor07:00 AM05.130
IA-UN-1 Creston 0.7 NE Union07:00 AM05.420
IA-WS-2 Ainsworth 7.4 N Washington07:00 AM05.320
IA-IA-2 Marengo 2.6 SSW Iowa07:00 AM03.090
IA-SR-17 Ames 0.9 ENE Story07:00 AM04.60
IA-DM-7 Burlington 6.5 SSW Des Moines07:00 AM05.490
IA-PK-3 Des Moines 4.5 ENE Polk07:00 AM03.10
IA-WB-5 Badger 3.1 NW Webster07:00 AM04.610
IA-DV-10 Bloomfield 8.4 NNE Davis07:00 AM04.050
IA-LE-11 West Point 7.5 NW Lee07:00 AM05.19
IA-FY-3 Waucoma 3.2 S Fayette07:00 AM04.5
IA-HY-5 Salem 3.1 ESE Henry07:00 AM04.52
IA-PK-83 Altoona 1.5 SSE Polk07:00 AM02.850
IA-DV-2 Moulton 3.6 ENE Davis07:00 AM04.70
IA-ST-37 Davenport 0.9 WNW Scott07:00 AM06.03
IA-TY-4 Bedford 0.5 NW Taylor07:00 AM06.530
IA-BT-12 Fairfax 4.0 NW Benton07:00 AM04.440
IA-MT-1 Osage 4.7 E Mitchell07:00 AM03.69
IA-WB-15 Clare 5.2 WNW Webster07:00 AM04.26
IA-DV-7 Bloomfield 4.2 WNW Davis07:00 AM04.460
IA-AL-5 Lansing 4.1 NW Allamakee07:00 AM04.45
IA-JH-21 Iowa City 8.0 NE Johnson07:00 AM02.48
IA-CR-7 Manning 0.2 ESE Carroll07:00 AM03.410
IA-DV-5 Milton 2.0 W Davis07:00 AM02.55 (1)
IA-DV-14 Drakesville 4.7 WNW Davis07:00 AM04.55 (1)
IA-LC-7 Lucas 2.1 NNW Lucas07:00 AM07.51
IA-IA-6 Amana 4.7 W Iowa07:00 AM03.950
IA-CW-3 New Hampton 0.3 NNW Chickasaw07:00 AM04.68
IA-JH-9 Kalona 7.3 NNW Johnson07:00 AM06.690
IA-AL-6 Postville 5.5 NE Allamakee07:00 AM04.6600
IA-WH-5 Decorah 4.9SE Winneshiek07:00 AM04.150
IA-CN-17 Charlotte 1.9 WNW Clinton07:00 AM06.89
IA-SR-19 Gilbert 0.2 W Story07:00 AM03.88 (1)0
IA-MC-11 Nichols 3.2 SSW Muscatine07:00 AM06.07
IA-BH-6 Waterloo 1.8 SSE Black Hawk07:00 AM08.710
IA-BH-7 Cedar Falls 1.4 SSE Black Hawk07:00 AM02.750
IA-BV-3 Linn Grove 5.0 S Buena Vista07:00 AM01.86
IA-AP-7 Centerville 0.3 NE Appanoose07:00 AM05.730
IA-DV-16 Bloomfield 4.7 SSE Davis07:00 AM06.480
IA-DK-3 Lake Park 3.2 SSE Dickinson07:00 AM02.390
IA-DV-9 Bloomfield 4.3 SSW Davis07:00 AM04.50
IA-DL-27 Waukee 1.4 NNE Dallas07:00 AM02.680
IA-WY-9 Corydon 7.7 SSE Wayne07:00 AM06.74
IA-DV-3 Bloomfield 8.6 SSW Davis07:00 AM04.99 (1)0
IA-DW-6 Hopkinton 5.4 WSW Delaware07:00 AM05.520
IA-LN-4 Cedar Rapids 3.4 NW Linn07:00 AM03.15
IA-WY-7 Allerton 5.1 E Wayne07:00 AM06.950
IA-MH-8 New Sharon 6.3 SSE Mahaska07:00 AM07.05
IA-OS-2 May City 0.1 NNW Osceola07:00 AM02.150
IA-CR-9 Arcadia 5.4 S Carroll07:00 AM03.44
IA-PT-2 Council Bluffs 3.4 NNE Pottawattamie07:00 AM02.580
IA-CN-5 Camanche 1.2 W Clinton07:00 AM05.360
IA-PK-88 Des Moines 5.4 WNW Polk07:00 AM03.05
IA-PK-21 Johnston 3.7 NNW Polk07:00 AM03.1200
IA-ST-28 Bettendorf 1.6 WSW Scott07:00 AM06.28
IA-HY-1 New London 1.5 SW Henry07:00 AM04.74 (1)0
IA-LN-7 Central City 6.7 W Linn07:00 AM05.040
IA-PA-5 West Bend 5.4 W Palo Alto07:00 AM02.670
IA-CS-2 Anita 2.8 ESE Cass07:00 AM03.090
IA-SR-34 Nevada 4.6 S Story07:00 AM04.06
IA-WH-4 Fort Atkinson 0.2 SE Winneshiek07:00 AM04.29
IA-HR-16 Logan 0.8 WNW Harrison07:00 AM02.37
IA-WR-7 Indianola 0.8 SSW Warren07:00 AM05.140
IA-BN-13 Madrid 5.8 NNW Boone07:00 AM04.77
IA-MH-9 Oskaloosa 7.5 SW Mahaska07:00 AM04.87
IA-SX-7 Sioux Center 2.6 N Sioux07:00 AM02.53
IA-AP-8 Centerville 5.6 NE Appanoose07:00 AM05.990
IA-CL-3 Murray 0.5 N Clarke07:00 AM05.7900
IA-CL-4 Murray 1.7 W Clarke07:00 AM05.4600
IA-BH-3 Cedar Falls 0.4 WNW Black Hawk07:00 AM06.2600
IA-DM-10 Burlington 2.1 S Des Moines07:00 AM05.470
IA-LN-36 Shellsburg 2.9 S Benton07:00 AM03.360
IA-PW-4 Grinnell 0.6 NW Poweshiek07:00 AM05.870
IA-DV-15 Bloomfield 9.3 WSW Davis07:00 AM04.840
IA-PK-95 Des Moines 3.7 NW Polk07:00 AM03.330
IA-PK-73 Des Moines 4.1 N Polk07:00 AM01.73
IA-PL-8 Kingsley 0.5 S Plymouth07:00 AM02.47
IA-WY-3 Seymour 1.7 W Wayne07:00 AM04.310
IA-PK-14 Ankeny 2.3 WNW Polk07:00 AM02.97
IA-JH-26 Iowa City 1.1 SE Johnson07:00 AM00.67 (1)0
IA-KS-4 Algona 0.7 SE Kossuth06:49 AM03.020
IA-WS-7 Wellman 4.0 E Washington06:30 AM06.240
IA-ST-8 Bettendorf 2.2 SE Scott06:30 AM04.7200
IA-SH-3 Elk Horn 0.2 SSE Shelby06:30 AM03.42
IA-SH-6 Kirkman 1.0 SE Shelby06:30 AM04.160
IA-LN-27 Marion 1.7 NNW Linn06:23 AM03.96
IA-BC-2 Quasqueton 1.8 S Buchanan06:10 AM05.340
IA-LN-30 Center Point 0.6 NNW Linn06:00 AM04.280
IA-LN-3 Ely 0.5 SE Linn06:00 AM04.490
IA-JH-1 Solon 0.3 ESE Johnson06:00 AM01.180
IA-BT-11 Mount Auburn 2.2 NNW Benton06:00 AM05.370
IA-DV-8 Bloomfield 6.5 E Davis06:00 AM05.780
IA-ID-4 Arthur 3.7 SSW Ida05:54 AM02.41
IA-ST-4 Davenport 1.0 SSW Scott05:30 AM05.4300
IA-BN-12 Boone 4.5 WSW Boone05:21 AM04.15
IA-DV-4 Bloomfield 2.9 SSW Davis05:00 AM04.270
IA-DL-22 Waukee 1.2 ENE Dallas05:00 AM02.970
IA-WB-3 Fort Dodge 1.6 ENE Webster05:00 AM05.690
IA-IA-13 Parnell 0.1 SSW Iowa04:49 AM06.96
IA-WY-8 Russell 6.9 SSW Wayne16 Oct 2018 08:30 AM6.55
IA-AL-4 Waukon 0.5 ESE Allamakee16 Oct 2018 08:00 AM5.52
IA-BU-3 Clarksville 0.2 NW Butler16 Oct 2018 08:00 AM3.94
IA-DB-19 Dubuque 1.4 WSW Dubuque16 Oct 2018 08:00 AM6.48
IA-DV-11 Milton 4.8 SSW Davis16 Oct 2018 08:00 AM5.04
IA-UN-3 Murray 5.7 SW Union16 Oct 2018 08:00 AM5.23
IA-SR-12 Ames 2.1 N Story16 Oct 2018 08:00 AM0.57
IA-GT-1 Jamaica 3.2 S Guthrie16 Oct 2018 07:00 AM4.01
IA-SC-4 Odebolt 4.8 NNW Sac16 Oct 2018 07:00 AM1.97
IA-CH-2 Manson 1.4 NE Calhoun16 Oct 2018 07:00 AM3.23
IA-HM-1 Webster City 0.5 NW Hamilton16 Oct 2018 07:00 AM4.12
IA-ST-34 Davenport 2.9 W Scott16 Oct 2018 07:00 AM5.02
IA-ST-42 Riverdale 0.5 N Scott16 Oct 2018 07:00 AM5.08
IA-MC-13 Muscatine 2.1 N Muscatine16 Oct 2018 07:00 AM3.16
IA-PT-7 Council Bluffs 3.6 E Pottawattamie16 Oct 2018 07:00 AM2.72
IA-DV-6 Drakesville 4.6 WSW Davis16 Oct 2018 07:00 AM3.26
IA-VB-11 Cantril 0.9 SSE Van Buren16 Oct 2018 07:00 AM4.99
IA-SR-8 Gilbert 0.3 SE Story16 Oct 2018 07:00 AM3.62
IA-SR-2 Ames 1.5 NNE Story16 Oct 2018 07:00 AM4.87
IA-WS-8 Washington 5.8 SW Washington16 Oct 2018 06:00 AM4.41
IA-BN-3 Ogden 1.6 SE Boone16 Oct 2018 05:26 AM3.09
IA-CD-5 Durant 0.2 S Cedar15 Oct 2018 10:00 PM5.29
IA-PK-68 Clive 1.2 E Polk15 Oct 2018 10:00 AM2.77
IA-LE-9 Montrose 0.3 NNW Lee15 Oct 2018 08:30 AM7.42
IA-PC-6 Pocahontas 0.6 W Pocahontas15 Oct 2018 08:00 AM2.5
IA-DW-9 Manchester 1.1 N Delaware15 Oct 2018 07:00 AM9.58
IA-DL-26 Dallas Center 4.1 ENE Dallas15 Oct 2018 07:00 AM3.67
IA-BN-5 Boone 4.5 NW Boone15 Oct 2018 07:00 AM3.33
IA-CG-11 Mason City 1.4 SSW Cerro Gordo15 Oct 2018 07:00 AM3.69 (1)
IA-CW-2 New Hampton 0.4 SW Chickasaw15 Oct 2018 07:00 AM4.56
IA-PK-98 Des Moines 5.3 NW Polk15 Oct 2018 07:00 AM2.99
IA-ST-3 Park View 0.2 WSW Scott15 Oct 2018 07:00 AM5.8
IA-PK-97 Ankeny 1.5 NNE Polk15 Oct 2018 07:00 AM3.25
IA-WR-21 Norwalk 0.5 S Warren15 Oct 2018 07:00 AM4
IA-DV-1 Bloomfield 9.4 NNE Davis15 Oct 2018 07:00 AM3.96
IA-TM-3 Dysart 3.1 N Tama15 Oct 2018 07:00 AM4.61
IA-WG-6 Eagle Grove 1.3 WSW Wright15 Oct 2018 07:00 AM4.02
IA-FY-5 Oelwein 0.3 E Fayette15 Oct 2018 07:00 AM4.07
IA-CF-2 Schleswig 0.4 NE Crawford15 Oct 2018 07:00 AM2.61
IA-AL-3 Monona 9.7 N Allamakee15 Oct 2018 07:00 AM4.19
IA-HR-7 Mondamin 1.7 SSW Harrison15 Oct 2018 07:00 AM2.84
IA-MD-3 Earlham 2.0 W Madison15 Oct 2018 07:00 AM3.19
IA-CK-1 Cleghorn 4.4 N Cherokee15 Oct 2018 07:00 AM2.32
IA-WT-1 Grafton 0.4 SE Worth15 Oct 2018 07:00 AM3.64
IA-MY-2 Emerson 4.0 NNE Montgomery15 Oct 2018 07:00 AM4.35
IA-JH-22 Coralville 1.3 SE Johnson15 Oct 2018 07:00 AM5.6
IA-HR-4 Persia 2.0 S Harrison15 Oct 2018 07:00 AM3.67
IA-HD-5 Eldora 1.2 ENE Hardin15 Oct 2018 07:00 AM5.32
IA-WP-6 Ottumwa 2.2 NE Wapello15 Oct 2018 06:55 AM4.1
IA-CS-5 Atlantic 7.1 NNE Cass15 Oct 2018 06:45 AM3.38
IA-LN-31 Cedar Rapids 2.7 NE Linn15 Oct 2018 06:00 AM2.61
IA-PA-6 West Bend 2.1 WNW Palo Alto15 Oct 2018 06:00 AM0.36
IA-WB-12 Fort Dodge 5.6 WNW Webster15 Oct 2018 05:00 AM4.42
IA-JN-14 Anamosa 1.9 SE Jones15 Oct 2018 04:51 AM5.31